| time (UTC) | temp F | wind direction | speed knots | gust knots | rain 1hr in | rain 24hr in | rain mn in | humidity % | barometer mb |
| 20260507234516 | 53 | 0.0 | 0.9 | 0.00 | 0.04 | 0.04 | 87 | 1011.1 | |
| 20260507233016 | 53 | 0.0 | 0.9 | 0.00 | 0.04 | 0.04 | 86 | 1010.9 | |
| 20260507231516 | 54 | 0.0 | 1.7 | 0.00 | 0.04 | 0.04 | 86 | 1010.6 | |
| 20260507230016 | 54 | 0.0 | 0.9 | 0.00 | 0.04 | 0.04 | 87 | 1010.7 | |
| 20260507224516 | 54 | 0.0 | 1.7 | 0.00 | 0.04 | 0.04 | 86 | 1010.5 | |
| 20260507223015 | 54 | 0.0 | 2.6 | 0.00 | 0.04 | 0.04 | 86 | 1010.7 | |
| 20260507221516 | 54 | 0.0 | 1.7 | 0.00 | 0.04 | 0.04 | 86 | 1010.5 | |
| 20260507220016 | 53 | 0.0 | 1.7 | 0.00 | 0.04 | 0.04 | 85 | 1010.3 | |
| 20260507214516 | 54 | 0.0 | 2.6 | 0.00 | 0.04 | 0.04 | 86 | 1010.6 | |
| 20260507213016 | 54 | 0 | 0.9 | 2.6 | 0.00 | 0.04 | 0.04 | 85 | 1010.4 |
| 20260507211515 | 54 | 0 | 0.9 | 3.5 | 0.01 | 0.04 | 0.04 | 84 | 1010.2 |
| 20260507210015 | 55 | 0.0 | 1.7 | 0.02 | 0.04 | 0.04 | 86 | 1010.4 | |
| 20260507204515 | 55 | 0.0 | 0.9 | 0.03 | 0.04 | 0.04 | 85 | 1010.6 | |
| 20260507203015 | 55 | 0.0 | 0.9 | 0.03 | 0.04 | 0.04 | 84 | 1010.8 | |
| 20260507201515 | 55 | 0.0 | 1.7 | 0.02 | 0.03 | 0.03 | 83 | 1010.5 | |
| 20260507200015 | 56 | 0.0 | 0.9 | 0.01 | 0.02 | 0.02 | 80 | 1010.8 | |
| 20260507194515 | 56 | 0.0 | 0.9 | 0.00 | 0.01 | 0.01 | 77 | 1010.7 | |
| 20260507193015 | 56 | 0.0 | 1.7 | 0.00 | 0.01 | 0.01 | 77 | 1010.9 | |
| 20260507191515 | 56 | 0.0 | 1.7 | 0.00 | 0.01 | 0.01 | 77 | 1011.3 | |
| 20260507190036 | 56 | 0.0 | 0.9 | 0.00 | 0.01 | 0.01 | 77 | 1011.1 | |
| 20260507184515 | 56 | 0.0 | 0.9 | 0.00 | 0.01 | 0.01 | 76 | 1011.2 | |
| 20260507183015 | 56 | 0.0 | 0.0 | 0.00 | 0.01 | 0.01 | 76 | 1011.3 | |
| 20260507181515 | 56 | 0.0 | 1.7 | 0.00 | 0.01 | 0.01 | 76 | 1011.3 | |
| 20260507180035 | 56 | 0 | 0.9 | 1.7 | 0.00 | 0.01 | 0.01 | 77 | 1011.2 |
| 20260507174517 | 56 | 0.0 | 1.7 | 0.00 | 0.01 | 0.01 | 76 | 1011.5 | |
| 20260507173017 | 55 | 0 | 0.9 | 2.6 | 0.00 | 0.01 | 0.01 | 78 | 1011.6 |
| 20260507171517 | 55 | 0 | 0.9 | 2.6 | 0.00 | 0.01 | 0.01 | 80 | 1012.0 |
| 20260507170017 | 55 | 0 | 0.9 | 1.7 | 0.00 | 0.01 | 0.01 | 82 | 1012.1 |
| 20260507164517 | 55 | 0.0 | 0.9 | 0.00 | 0.01 | 0.01 | 84 | 1012.2 | |
| 20260507163017 | 55 | 0.0 | 1.7 | 0.00 | 0.01 | 0.01 | 85 | 1012.2 | |
| 20260507161517 | 55 | 0 | 0.9 | 2.6 | 0.00 | 0.01 | 0.01 | 86 | 1012.5 |
| 20260507160017 | 55 | 0.0 | 1.7 | 0.01 | 0.01 | 0.01 | 86 | 1012.6 | |
| 20260507154517 | 55 | 0.0 | 1.7 | 0.01 | 0.01 | 0.01 | 84 | 1012.8 | |
| 20260507153017 | 56 | 0.0 | 1.7 | 0.01 | 0.01 | 0.01 | 84 | 1012.7 | |
| 20260507151517 | 56 | 0.0 | 0.9 | 0.01 | 0.01 | 0.01 | 83 | 1012.4 | |
| 20260507150017 | 56 | 0 | 0.9 | 3.5 | 0.00 | 0.00 | 0.00 | 80 | 1012.7 |
| 20260507144517 | 57 | 0 | 0.9 | 3.5 | 0.00 | 0.01 | 0.00 | 78 | 1012.3 |
| 20260507143017 | 57 | 0 | 0.9 | 2.6 | 0.00 | 0.03 | 0.00 | 79 | 1012.5 |
| 20260507141536 | 57 | 0 | 0.9 | 2.6 | 0.00 | 0.05 | 0.00 | 79 | 1012.7 |
| 20260507140017 | 57 | 0 | 0.9 | 2.6 | 0.00 | 0.06 | 0.00 | 79 | 1012.7 |
| 20260507134517 | 57 | 0 | 0.9 | 2.6 | 0.00 | 0.08 | 0.00 | 78 | 1012.7 |
| 20260507133016 | 58 | 0 | 0.9 | 4.3 | 0.00 | 0.08 | 0.00 | 77 | 1012.6 |
| 20260507131517 | 58 | 0 | 0.9 | 3.5 | 0.00 | 0.08 | 0.00 | 79 | 1012.4 |
| 20260507130017 | 57 | 0 | 0.9 | 2.6 | 0.00 | 0.08 | 0.00 | 83 | 1012.3 |
| 20260507124516 | 57 | 0 | 0.9 | 2.6 | 0.00 | 0.08 | 0.00 | 84 | 1012.5 |
| 20260507123017 | 57 | 0 | 0.9 | 2.6 | 0.00 | 0.08 | 0.00 | 84 | 1012.5 |
| 20260507121517 | 57 | 0 | 0.9 | 2.6 | 0.00 | 0.08 | 0.00 | 84 | 1012.3 |
| 20260507120036 | 57 | 0 | 0.9 | 3.5 | 0.00 | 0.08 | 0.00 | 83 | 1012.2 |
| 20260507114516 | 57 | 0 | 0.9 | 2.6 | 0.00 | 0.08 | 0.00 | 83 | 1012.2 |
| 20260507113016 | 57 | 0 | 0.9 | 3.5 | 0.00 | 0.08 | 0.00 | 82 | 1012.0 |
| 20260507111536 | 57 | 0.0 | 2.6 | 0.00 | 0.08 | 0.00 | 81 | 1011.8 | |
| 20260507110036 | 57 | 0.0 | 1.7 | 0.00 | 0.08 | 0.00 | 81 | 1011.9 | |
| 20260507104516 | 57 | 0.0 | 2.6 | 0.00 | 0.08 | 0.00 | 80 | 1011.6 | |
| 20260507103016 | 57 | 0 | 0.9 | 3.5 | 0.00 | 0.08 | 0.00 | 79 | 1011.4 |
| 20260507101517 | 57 | 0.0 | 1.7 | 0.00 | 0.08 | 0.00 | 79 | 1010.9 | |
| 20260507100016 | 57 | 0.0 | 3.5 | 0.00 | 0.08 | 0.00 | 79 | 1011.4 | |
| 20260507094516 | 57 | 0 | 0.9 | 2.6 | 0.00 | 0.08 | 0.00 | 80 | 1011.5 |
| 20260507093037 | 58 | 0 | 0.9 | 2.6 | 0.00 | 0.08 | 0.00 | 81 | 1011.7 |
| 20260507091516 | 58 | 0.0 | 5.2 | 0.00 | 0.08 | 0.00 | 83 | 1011.2 | |
| 20260507090016 | 58 | 0 | 0.9 | 2.6 | 0.00 | 0.08 | 0.00 | 85 | 1011.4 |
| 20260507084536 | 59 | 0.0 | 1.7 | 0.00 | 0.08 | 0.00 | 85 | 1011.2 | |
| 20260507083016 | 59 | 0 | 0.9 | 3.5 | 0.00 | 0.08 | 0.00 | 84 | 1011.2 |
| 20260507081516 | 60 | 0 | 0.9 | 3.5 | 0.00 | 0.08 | 0.00 | 84 | 1011.2 |
| 20260507080016 | 61 | 0 | 0.9 | 3.5 | 0.00 | 0.08 | 0.00 | 83 | 1010.8 |
| 20260507074516 | 62 | 0 | 0.9 | 3.5 | 0.00 | 0.08 | 0.00 | 83 | 1010.4 |
| 20260507073016 | 64 | 0 | 0.9 | 7.8 | 0.00 | 0.08 | 0.00 | 83 | 1010.4 |
| 20260507071516 | 66 | 0.0 | 2.6 | 0.00 | 0.08 | 0.00 | 90 | 1010.3 | |
| 20260507070016 | 66 | 0.0 | 0.9 | 0.00 | 0.08 | 0.00 | 89 | 1010.1 | |
| 20260507064516 | 66 | 0.0 | 0.0 | 0.00 | 0.08 | 0.00 | 89 | 1009.7 | |
| 20260507063016 | 66 | 0.0 | 0.0 | 0.00 | 0.08 | 0.00 | 88 | 1009.5 | |
| 20260507061516 | 67 | 0.0 | 0.0 | 0.00 | 0.08 | 0.00 | 88 | 1009.1 | |
| 20260507060015 | 67 | 0.0 | 0.0 | 0.00 | 0.08 | 0.00 | 87 | 1009.0 | |
| 20260507054516 | 67 | 0.0 | 0.0 | 0.00 | 0.08 | 0.00 | 87 | 1008.8 | |
| 20260507053036 | 67 | 0.0 | 0.0 | 0.00 | 0.08 | 0.00 | 86 | 1009.1 | |
| 20260507051535 | 67 | 0.0 | 0.0 | 0.00 | 0.08 | 0.00 | 86 | 1009.3 | |
| 20260507050015 | 67 | 0.0 | 0.0 | 0.00 | 0.08 | 0.00 | 86 | 1009.8 | |
| 20260507044516 | 67 | 0.0 | 0.0 | 0.00 | 0.08 | 0.00 | 86 | 1010.1 | |
| 20260507043036 | 67 | 0.0 | 0.0 | 0.00 | 0.08 | 0.00 | 86 | 1010.3 | |
| 20260507041536 | 67 | 0.0 | 0.0 | 0.00 | 0.08 | 0.00 | 87 | 1009.9 | |
| 20260507040016 | 67 | 0.0 | 0.0 | 0.00 | 0.08 | 0.08 | 87 | 1009.8 | |
| 20260507034516 | 67 | 0.0 | 0.0 | 0.00 | 0.08 | 0.08 | 87 | 1010.3 | |
| 20260507033016 | 66 | 0.0 | 0.9 | 0.00 | 0.08 | 0.08 | 87 | 1010.1 | |
| 20260507031516 | 66 | 0.0 | 0.9 | 0.00 | 0.08 | 0.08 | 87 | 1009.9 | |
| 20260507030016 | 66 | 0.0 | 1.7 | 0.00 | 0.08 | 0.08 | 87 | 1009.7 | |
| 20260507024516 | 66 | 0.0 | 0.9 | 0.00 | 0.08 | 0.08 | 86 | 1009.6 | |
| 20260507023036 | 66 | 0.0 | 0.0 | 0.00 | 0.08 | 0.08 | 86 | 1009.8 | |
| 20260507021516 | 67 | 0.0 | 0.0 | 0.00 | 0.08 | 0.08 | 86 | 1010.0 | |
| 20260507020016 | 67 | 0.0 | 0.0 | 0.00 | 0.08 | 0.08 | 85 | 1010.1 | |
| 20260507014516 | 67 | 0.0 | 1.7 | 0.00 | 0.08 | 0.08 | 85 | 1010.1 | |
| 20260507013016 | 67 | 0.0 | 0.0 | 0.00 | 0.08 | 0.08 | 84 | 1010.2 | |
| 20260507011517 | 67 | 0.0 | 0.0 | 0.00 | 0.08 | 0.08 | 84 | 1010.1 | |
| 20260507010036 | 67 | 0.0 | 0.9 | 0.00 | 0.08 | 0.08 | 83 | 1009.6 | |
| 20260507004516 | 68 | 0.0 | 1.7 | 0.00 | 0.08 | 0.08 | 82 | 1009.9 | |
| 20260507003016 | 68 | 0.0 | 0.9 | 0.00 | 0.08 | 0.08 | 81 | 1010.2 | |
| 20260507001515 | 69 | 0.0 | 1.7 | 0.00 | 0.08 | 0.08 | 80 | 1010.2 | |
| 20260507000016 | 69 | 0.0 | 0.9 | 0.00 | 0.08 | 0.08 | 79 | 1009.9 |